Flag for Germany Weather past 2 weeks in Achim, Lower Saxony, Germany

Now
50 °F

Passing clouds.


Feels Like: 47 °F
Forecast: 50 / 58 °F
Wind: 8 mph from South

Location: Bremen Airport

Current Time: Oct 24, 2014 at 9:05:30 AM

Latest Report: Oct 24, 2014 at 8:20 AM


Visibility: N/A

Pressure: 30.12 "Hg

Humidity: 94%

Dew point: 48 °F

Location of AchimLocation

Historic Weather in Achim — Graph

°F

Achim temperature yesterday

Maximum temperature yesterday: 55 °F (at 2:20 PM)
Minimum temperature yesterday: 43 °F (at 4:50 AM)
Average temperature yesterday: 50 °F

Past Weeks' High & Low Weather Summary

 TemperatureHumidityPressure
High73 °F (Oct 19, 1:50 PM)100% (Oct 11, 5:50 AM)30.18 "Hg (Oct 11, 5:50 AM)
Low43 °F (Oct 23, 4:50 AM)56% (Oct 14, 2:50 PM)29.39 "Hg (Oct 21, 4:50 PM)
Average56 °F87%29.84 "Hg
* Reported Oct 9 7:20 AM — Oct 24 7:20 AM, Achim, Weather by CustomWeather, © 2014

Note: Actual official high and low records may vary slightly from our data, if they occured in-between our weather recording intervals... More about our weather records

Advertising

Achim weather history for previous 24 hours

 ConditionsComfort  
Time TempWeatherWind HumidityBarometerVisibility
7:20 AM
Oct 24
50 °FClear.8 mph94%30.12 "Hg10 mi
6:50 AM50 °FClear.8 mph94%30.12 "Hg10 mi
6:20 AM52 °FPassing clouds.8 mph88%30.12 "HgN/A
5:50 AM52 °FPassing clouds.8 mph88%30.12 "HgN/A
5:20 AM52 °FPassing clouds.8 mph88%30.12 "HgN/A
4:50 AM52 °FPassing clouds.7 mph88%30.12 "HgN/A
4:20 AM52 °FPassing clouds.8 mph88%30.12 "HgN/A
3:50 AM52 °FPassing clouds.7 mph88%30.12 "HgN/A
3:20 AM54 °FPassing clouds.9 mph82%30.15 "HgN/A
2:50 AM52 °FPassing clouds.9 mph88%30.15 "HgN/A
2:20 AM52 °FPassing clouds.8 mph88%30.15 "HgN/A
1:50 AM52 °FPassing clouds.8 mph88%30.15 "HgN/A
1:20 AM52 °FPassing clouds.6 mph88%30.15 "HgN/A
12:50 AM52 °FPassing clouds.9 mph88%30.15 "HgN/A
12:20 AM52 °FPassing clouds.8 mph88%30.15 "HgN/A
11:50 PM
Oct 23
52 °FPassing clouds.7 mph88%30.15 "HgN/A
11:20 PM52 °FPassing clouds.7 mph88%30.15 "HgN/A
10:50 PM52 °FPartly cloudy.8 mph88%30.18 "HgN/A
10:20 PM52 °FPartly cloudy.7 mph88%30.18 "Hg6 mi
9:50 PM52 °FPassing clouds.8 mph88%30.18 "Hg6 mi
9:20 PM54 °FOvercast.10 mph82%30.15 "Hg6 mi
8:50 PM52 °FOvercast.8 mph88%30.15 "Hg5 mi
8:20 PM54 °FOvercast.8 mph82%30.15 "Hg5 mi
7:50 PM54 °FPassing clouds.8 mph88%30.15 "Hg5 mi
7:20 PM54 °FPassing clouds.8 mph88%30.15 "Hg5 mi
6:50 PM54 °FPartly sunny.8 mph88%30.15 "Hg4 mi
6:20 PM54 °FBroken clouds.8 mph88%30.15 "Hg4 mi
5:50 PM54 °FPartly sunny.9 mph88%30.15 "Hg4 mi
5:20 PM54 °FPartly sunny.8 mph88%30.15 "HgN/A
4:50 PM54 °FPartly sunny.8 mph88%30.15 "HgN/A
4:20 PM55 °FPartly sunny.9 mph82%30.15 "HgN/A
3:50 PM55 °FPartly sunny.9 mph82%30.15 "HgN/A
3:20 PM55 °FBroken clouds.9 mph82%30.15 "HgN/A
2:50 PM55 °FBroken clouds.7 mph82%30.18 "HgN/A
2:20 PM55 °FPartly sunny.8 mph82%30.18 "HgN/A
1:50 PM54 °FBroken clouds.8 mph82%30.18 "HgN/A
1:20 PM54 °FPartly sunny.8 mph82%30.18 "HgN/A
12:50 PM54 °FPartly sunny.6 mph82%30.18 "HgN/A
12:20 PM52 °FPartly sunny.6 mph88%30.18 "HgN/A
11:50 AM52 °FPartly sunny.8 mph88%30.18 "HgN/A
11:20 AM52 °FPartly sunny.7 mph88%30.18 "HgN/A
10:50 AM52 °FBroken clouds.7 mph82%30.18 "HgN/A
10:20 AM50 °FPartly sunny.6 mph88%30.18 "HgN/A
9:50 AM48 °FPartly sunny.6 mph94%30.18 "HgN/A
9:20 AM48 °FPartly sunny.5 mph87%30.15 "HgN/A
Weather by CustomWeather, © 2014

See weather overviewHow to use our weather pages